Previsão horária em Abramovo

Hoje, 18 Maio, Terça-feira

Tempo Temperatura Precipitação Vento Pressão Humidade
00:00 +17°C° 0 mm 3 m/s 737 mmHg 90%
01:00 +16°C° 0 mm 3 m/s 737 mmHg 92%
02:00 +16°C° 0 mm 3 m/s 737 mmHg 93%
03:00 +16°C° 0 mm 3 m/s 737 mmHg 94%
04:00 +16°C° 0 mm 3 m/s 736 mmHg 94%
05:00 +15°C° 0 mm 4 m/s 736 mmHg 95%
06:00 +17°C° 0.1 mm 4 m/s 736 mmHg 92%
07:00 +17°C° 0.1 mm 5 m/s 737 mmHg 89%
08:00 +20°C° 0.1 mm 5 m/s 737 mmHg 86%
09:00 +20°C° 0 mm 5 m/s 737 mmHg 82%
10:00 +21°C° 0 mm 5 m/s 737 mmHg 79%
11:00 +21°C° 0 mm 5 m/s 737 mmHg 75%
12:00 +21°C° 0.4 mm 5 m/s 737 mmHg 79%
13:00 +20°C° 0.4 mm 5 m/s 737 mmHg 82%
14:00 +19°C° 0.4 mm 4 m/s 737 mmHg 85%
15:00 +20°C° 0.8 mm 4 m/s 737 mmHg 84%
16:00 +20°C° 0.8 mm 4 m/s 737 mmHg 83%
17:00 +20°C° 0.8 mm 4 m/s 736 mmHg 81%
18:00 +19°C° 1 mm 4 m/s 736 mmHg 85%
19:00 +17°C° 1 mm 4 m/s 736 mmHg 88%
20:00 +15°C° 1 mm 4 m/s 736 mmHg 92%
21:00 +15°C° 0 mm 4 m/s 736 mmHg 93%
22:00 +16°C° 0 mm 3 m/s 736 mmHg 94%
23:00 +14°C° 0 mm 3 m/s 736 mmHg 95%

Amanhã, 19 Maio, Quarta-feira

Tempo Temperatura Precipitação Vento Pressão Humidade
00:00 +14°C° 0.1 mm 3 m/s 736 mmHg 96%
01:00 +13°C° 0.1 mm 3 m/s 736 mmHg 96%
02:00 +13°C° 0.1 mm 3 m/s 736 mmHg 97%
03:00 +13°C° 0.1 mm 4 m/s 736 mmHg 97%
04:00 +13°C° 0.1 mm 4 m/s 736 mmHg 97%
05:00 +13°C° 0.1 mm 4 m/s 736 mmHg 97%
06:00 +15°C° 0 mm 4 m/s 737 mmHg 92%
07:00 +17°C° 0 mm 4 m/s 737 mmHg 87%
08:00 +17°C° 0 mm 5 m/s 737 mmHg 82%
09:00 +17°C° 0.2 mm 5 m/s 737 mmHg 79%
10:00 +19°C° 0.2 mm 5 m/s 737 mmHg 75%
11:00 +20°C° 0.2 mm 5 m/s 738 mmHg 71%
12:00 +20°C° 0.1 mm 5 m/s 738 mmHg 67%
13:00 +21°C° 0.1 mm 5 m/s 738 mmHg 62%
14:00 +22°C° 0.1 mm 4 m/s 738 mmHg 57%
15:00 +21°C° 0.3 mm 4 m/s 738 mmHg 64%
16:00 +20°C° 0.3 mm 4 m/s 738 mmHg 70%
17:00 +20°C° 0.3 mm 3 m/s 738 mmHg 76%
18:00 +18°C° 0.3 mm 3 m/s 738 mmHg 83%
19:00 +16°C° 0.3 mm 3 m/s 739 mmHg 89%
20:00 +14°C° 0.3 mm 2 m/s 739 mmHg 95%
21:00 +14°C° 0 mm 2 m/s 739 mmHg 96%
22:00 +13°C° 0 mm 2 m/s 739 mmHg 97%
23:00 +13°C° 0 mm 2 m/s 739 mmHg 98%

Depois de amanhã, 20 Maio, Quinta-feira

Tempo Temperatura Precipitação Vento Pressão Humidade
00:00 +11°C° 0 mm 3 m/s 739 mmHg 98%
01:00 +11°C° 0 mm 3 m/s 739 mmHg 98%
02:00 +11°C° 0 mm 3 m/s 739 mmHg 97%
03:00 +11°C° 0.2 mm 4 m/s 739 mmHg 97%
04:00 +11°C° 0.2 mm 4 m/s 739 mmHg 97%
05:00 +11°C° 0.2 mm 4 m/s 739 mmHg 97%
06:00 +11°C° 0.2 mm 4 m/s 738 mmHg 97%
07:00 +11°C° 0.2 mm 4 m/s 738 mmHg 97%
08:00 +11°C° 0.2 mm 4 m/s 738 mmHg 97%
09:00 +12°C° 0.3 mm 4 m/s 738 mmHg 97%
10:00 +12°C° 0.3 mm 4 m/s 737 mmHg 96%
11:00 +13°C° 0.3 mm 5 m/s 737 mmHg 96%
12:00 +13°C° 0.6 mm 5 m/s 737 mmHg 96%
13:00 +12°C° 0.6 mm 5 m/s 736 mmHg 97%
14:00 +11°C° 0.6 mm 6 m/s 736 mmHg 97%
15:00 +12°C° 1.2 mm 5 m/s 736 mmHg 97%
16:00 +12°C° 1.2 mm 4 m/s 736 mmHg 97%
17:00 +11°C° 1.2 mm 4 m/s 735 mmHg 97%
18:00 +11°C° 1.3 mm 3 m/s 735 mmHg 97%
19:00 +11°C° 1.3 mm 3 m/s 735 mmHg 97%
20:00 +10°C° 1.3 mm 3 m/s 735 mmHg 98%
21:00 +10°C° 0 mm 3 m/s 735 mmHg 98%
22:00 +10°C° 0 mm 3 m/s 735 mmHg 98%
23:00 +10°C° 0 mm 2 m/s 735 mmHg 97%

21 Maio, Sexta-feira

Tempo Temperatura Precipitação Vento Pressão Humidade
00:00 +10°C° 0 mm 2 m/s 735 mmHg 98%
01:00 +9°C° 0 mm 3 m/s 734 mmHg 98%
02:00 +9°C° 0 mm 3 m/s 734 mmHg 98%
03:00 +9°C° 0.2 mm 3 m/s 734 mmHg 98%
04:00 +9°C° 0.2 mm 3 m/s 734 mmHg 98%
05:00 +9°C° 0.2 mm 3 m/s 734 mmHg 98%
06:00 +9°C° 0.5 mm 3 m/s 734 mmHg 97%
07:00 +8°C° 0.5 mm 4 m/s 735 mmHg 97%
08:00 +8°C° 0.5 mm 5 m/s 735 mmHg 97%
09:00 +8°C° 0.3 mm 5 m/s 736 mmHg 96%
10:00 +7°C° 0.3 mm 6 m/s 736 mmHg 96%
11:00 +7°C° 0.3 mm 6 m/s 737 mmHg 95%
12:00 +7°C° 0.6 mm 6 m/s 738 mmHg 95%
13:00 +7°C° 0.6 mm 6 m/s 739 mmHg 95%
14:00 +6°C° 0.6 mm 7 m/s 740 mmHg 94%
15:00 +8°C° 0.2 mm 6 m/s 740 mmHg 92%
16:00 +8°C° 0.2 mm 5 m/s 741 mmHg 90%
17:00 +10°C° 0.2 mm 4 m/s 741 mmHg 88%
18:00 +10°C° 0 mm 4 m/s 742 mmHg 88%
19:00 +9°C° 0 mm 3 m/s 742 mmHg 89%
20:00 +9°C° 0 mm 3 m/s 743 mmHg 89%
21:00 +8°C° 0 mm 3 m/s 743 mmHg 90%
22:00 +8°C° 0 mm 3 m/s 743 mmHg 92%
23:00 +6°C° 0 mm 4 m/s 744 mmHg 93%

22 Maio, Sábado

Tempo Temperatura Precipitação Vento Pressão Humidade
00:00 +7°C° 0 mm 3 m/s 744 mmHg 93%
01:00 +7°C° 0 mm 3 m/s 744 mmHg 94%
02:00 +7°C° 0 mm 3 m/s 744 mmHg 94%
03:00 +7°C° 0 mm 3 m/s 744 mmHg 93%
04:00 +5°C° 0 mm 3 m/s 745 mmHg 93%
05:00 +5°C° 0 mm 3 m/s 745 mmHg 92%
06:00 +8°C° 0 mm 3 m/s 745 mmHg 83%
07:00 +9°C° 0 mm 3 m/s 746 mmHg 73%
08:00 +10°C° 0 mm 4 m/s 746 mmHg 63%
09:00 +11°C° 0 mm 4 m/s 746 mmHg 59%
10:00 +13°C° 0 mm 4 m/s 746 mmHg 55%
11:00 +14°C° 0 mm 5 m/s 746 mmHg 50%
12:00 +14°C° 0 mm 4 m/s 746 mmHg 50%
13:00 +14°C° 0 mm 4 m/s 746 mmHg 50%
14:00 +15°C° 0 mm 4 m/s 746 mmHg 49%
15:00 +15°C° 0 mm 4 m/s 746 mmHg 52%
16:00 +16°C° 0 mm 3 m/s 746 mmHg 55%
17:00 +16°C° 0 mm 3 m/s 746 mmHg 58%
18:00 +14°C° 0 mm 2 m/s 746 mmHg 64%
19:00 +13°C° 0 mm 2 m/s 746 mmHg 70%
20:00 +10°C° 0 mm 2 m/s 746 mmHg 77%
21:00 +9°C° 0 mm 2 m/s 747 mmHg 79%
22:00 +9°C° 0 mm 2 m/s 747 mmHg 82%
23:00 +8°C° 0 mm 2 m/s 747 mmHg 85%

23 Maio, Domingo

Tempo Temperatura Precipitação Vento Pressão Humidade
00:00 +8°C° 0 mm 2 m/s 747 mmHg 85%
01:00 +7°C° 0 mm 2 m/s 747 mmHg 86%
02:00 +7°C° 0 mm 2 m/s 748 mmHg 87%
03:00 +7°C° 0 mm 2 m/s 748 mmHg 86%
04:00 +8°C° 0 mm 2 m/s 748 mmHg 86%
05:00 +8°C° 0 mm 2 m/s 748 mmHg 85%
06:00 +9°C° 0 mm 2 m/s 748 mmHg 80%
07:00 +11°C° 0 mm 3 m/s 748 mmHg 75%
08:00 +13°C° 0 mm 3 m/s 748 mmHg 70%
09:00 +14°C° 0 mm 3 m/s 748 mmHg 66%
10:00 +15°C° 0 mm 4 m/s 748 mmHg 62%
11:00 +17°C° 0 mm 4 m/s 748 mmHg 58%
12:00 +17°C° 0 mm 4 m/s 748 mmHg 57%
13:00 +18°C° 0 mm 4 m/s 748 mmHg 55%
14:00 +19°C° 0 mm 4 m/s 747 mmHg 54%
15:00 +18°C° 0 mm 4 m/s 747 mmHg 57%
16:00 +18°C° 0 mm 4 m/s 747 mmHg 60%
17:00 +18°C° 0 mm 3 m/s 747 mmHg 63%
18:00 +17°C° 0 mm 3 m/s 747 mmHg 69%
19:00 +15°C° 0 mm 2 m/s 747 mmHg 75%
20:00 +14°C° 0 mm 2 m/s 747 mmHg 81%
21:00 +13°C° 0 mm 2 m/s 747 mmHg 83%
22:00 +13°C° 0 mm 2 m/s 747 mmHg 85%
23:00 +12°C° 0 mm 2 m/s 747 mmHg 87%
Mostrar mais

Necessitamos do seu Consentimento

A Meteoprog e os seus Fornecedores de Serviços podem armazenar e aceder a dados pessoais como cookies, identificadores do dispositivo ou outras tecnologias semelhantes existentes no seu dispositivo e processar estes dados para personalizar conteúdos e anúncios, assim como funcionalidades nas redes sociais e análise de tráfego.

  • Armazenar e/ou aceder a informações no seu dispositivo

    Os cookies, identificadores do dispositivo ou outras informações podem ser armazenados ou acedidos no seu dispositivo, para os fins acima indicados.

  • Anúncios e conteúdos personalizados, medição de anúncios e conteúdos, dados sobre o público-alvo e desenvolvimento de produtos

    Os anúncios e os conteúdos podem ser personalizados com base num perfil. Podem ser adicionados dados adicionais para uma maior personalização dos anúncios e dos conteúdos. A eficácia dos anúncios e dos conteúdos pode ser medida. Podem ser obtidas informações sobre o público que visualizou os anúncios e os conteúdos. Estes dados podem ser usados para desenvolver ou melhorar sistemas, softwares ou a experiência do utilizador.

Ao clicar em "Eu concordo”, permitirá o uso de cookies, identificadores do dispositivo e web beacons mencionados ou outras tecnologias semelhantes. As configurações do navegador do seu dispositivo podem ser alteradas.

Para certos fins, podem ser invocados interesses legítimos ao invés de consentimento. Pode ler mais informação sobre este assunto na nossa Política de Privacidade e Cookies.